Weather History for Grand Canyon, AZ

Change the Weather History Date:

Wednesday, February 6, 2013

  Actual Average Record
Temperature  
Mean Temperature 36 °F -  
Max Temperature 48 °F 42 °F 57 °F (2007)
Min Temperature 23 °F 14 °F -13 °F (1985)
Degree Days  
Heating Degree Days 29    
Moisture  
Dew Point 22 °F    
Average Humidity 68    
Maximum Humidity 89    
Minimum Humidity 31    
Precipitation  
Precipitation 0.00 in - - ()
Sea Level Pressure  
Sea Level Pressure 29.99 in    
Wind  
Wind Speed 3 mph (WNW)    
Max Wind Speed 14 mph    
Max Gust Speed 20 mph    
Visibility 10 miles    
Events      
Averages and records for this station are not official NWS values.
T = Trace of Precipitation, MM = Missing Value Source: NWS Daily Summary

Daily Weather History Graph

Daily Weather History Graph

Search for Another Location

Airport:

Trip Planner

Search our weather history database for the weather conditions in past years. The results will help you decide how hot, cold, wet, or windy it might be!

Date:

Astronomy

Feb. 06, 2013 Rise Set
Actual Time 7:24 AM MST 6:01 PM MST
Civil Twilight 6:57 AM MST 6:27 PM MST
Nautical Twilight 6:27 AM MST 6:58 PM MST
Astronomical Twilight 5:57 AM MST 7:28 PM MST
Moon 4:08 AM MST (2/6) 2:27 PM MST (2/6)
Length of Visible Light 11h 29m
Length of Day
10h 36m
Waning Crescent, 16% of the Moon is Illuminated
Feb 6
Waning Crescent
Feb 10
New
Feb 17
First Quarter
Feb 25
Full
Mar 4
Last Quarter

Hourly Weather History & Observations

Time (MST) Temp. Windchill Dew Point Humidity Pressure Visibility Wind Dir Wind Speed Gust Speed Precip Events Conditions
12:54 AM 25.0 °F - 19.9 °F 81% 29.95 in 10.0 mi Calm Calm - N/A   Clear
1:54 AM 24.1 °F 19.7 °F 19.9 °F 84% 29.94 in 10.0 mi Variable 3.5 mph - N/A   Clear
2:54 AM 24.1 °F - 19.9 °F 84% 29.94 in 10.0 mi Calm Calm - N/A   Clear
3:54 AM 26.1 °F 21.9 °F 21.9 °F 84% 29.91 in 10.0 mi NE 3.5 mph - N/A   Clear
4:54 AM 27.0 °F - 24.1 °F 89% 29.89 in 10.0 mi Calm Calm - N/A   Mostly Cloudy
5:54 AM 27.0 °F - 23.0 °F 85% 29.94 in 10.0 mi Calm Calm - N/A   Scattered Clouds
6:54 AM 27.0 °F 21.6 °F 24.1 °F 89% 29.99 in 10.0 mi East 4.6 mph - N/A   Scattered Clouds
7:54 AM 28.9 °F 22.8 °F 24.1 °F 82% 30.00 in 10.0 mi ENE 5.8 mph - N/A   Mostly Cloudy
8:54 AM 30.9 °F - 27.0 °F 85% 30.01 in 10.0 mi Calm Calm - N/A   Mostly Cloudy
10:54 AM 43.0 °F 36.8 °F 26.1 °F 51% 30.01 in 10.0 mi SSW 11.5 mph - N/A   Clear
11:54 AM 46.9 °F - 28.0 °F 48% 29.98 in 10.0 mi West 10.4 mph 19.6 mph N/A   Clear
12:54 PM 48.0 °F - 25.0 °F 41% 29.95 in 10.0 mi WSW 8.1 mph 16.1 mph N/A   Scattered Clouds
1:54 PM 46.0 °F 43.1 °F 26.1 °F 46% 29.94 in 10.0 mi Variable 5.8 mph - N/A   Mostly Cloudy
2:54 PM 46.9 °F - 21.0 °F 36% 29.94 in 10.0 mi WSW 11.5 mph - N/A   Scattered Clouds
3:54 PM 48.9 °F - 19.9 °F 32% 29.92 in 10.0 mi WSW 13.8 mph - N/A   Overcast
4:54 PM 48.9 °F - 19.0 °F 31% 29.95 in 10.0 mi West 5.8 mph - N/A   Partly Cloudy
5:54 PM 44.1 °F 42.5 °F 21.0 °F 40% 29.99 in 10.0 mi NW 3.5 mph - N/A   Clear
6:54 PM 33.1 °F - 23.0 °F 66% 30.06 in 10.0 mi Calm Calm - N/A   Mostly Cloudy
7:54 PM 28.0 °F - 21.9 °F 78% 30.08 in 10.0 mi Calm Calm - N/A   Clear
8:54 PM 26.1 °F 20.5 °F 21.0 °F 81% 30.11 in 10.0 mi NE 4.6 mph - N/A   Clear
9:54 PM 25.0 °F - 19.9 °F 81% 30.08 in 10.0 mi Calm Calm - N/A   Clear
10:54 PM 24.1 °F 18.2 °F 19.9 °F 84% 30.08 in 10.0 mi NE 4.6 mph - N/A   Clear
11:54 PM 23.0 °F - 19.0 °F 85% 30.09 in 10.0 mi Calm Calm - N/A   Clear